Time,TemperatureF,DewpointF,PressureIn,WindDirection,WindDirectionDegrees,WindSpeedMPH,WindSpeedGustMPH,Humidity,HourlyPrecipIn,Conditions,Clouds,dailyrainin,SolarRadiationWatts/m^2,SoftwareType,DateUTC
2013-09-25 00:03:00,75.5,36.2,29.70,East,89,0.0,1.0,24,0.00,,,0.00,0,LWC V2.00 B727,2013-09-25 07:03:00,
2013-09-25 00:08:00,75.5,36.2,29.70,East,89,1.0,1.0,24,0.00,,,0.00,0,LWC V2.00 B727,2013-09-25 07:08:00,
2013-09-25 00:13:00,75.4,36.1,29.69,East,89,1.0,2.0,24,0.00,,,0.00,0,LWC V2.00 B727,2013-09-25 07:13:00,
2013-09-25 00:18:00,75.2,35.9,29.69,East,89,1.0,2.0,24,0.00,,,0.00,0,LWC V2.00 B727,2013-09-25 07:18:00,
2013-09-25 00:23:00,75.0,35.7,29.69,East,89,0.0,1.0,24,0.00,,,0.00,0,LWC V2.00 B727,2013-09-25 07:23:00,
2013-09-25 00:28:00,74.9,35.7,29.69,East,89,0.0,0.0,24,0.00,,,0.00,0,LWC V2.00 B727,2013-09-25 07:28:00,
2013-09-25 00:33:00,74.7,35.5,29.68,East,89,0.0,0.0,24,0.00,,,0.00,0,LWC V2.00 B727,2013-09-25 07:33:00,
2013-09-25 00:38:00,74.6,35.4,29.68,East,89,0.0,0.0,24,0.00,,,0.00,0,LWC V2.00 B727,2013-09-25 07:38:00,
2013-09-25 00:43:00,74.4,36.3,29.68,East,89,0.0,0.0,25,0.00,,,0.00,0,LWC V2.00 B727,2013-09-25 07:43:00,
2013-09-25 00:48:00,74.2,35.1,29.68,East,89,0.0,0.0,24,0.00,,,0.00,0,LWC V2.00 B727,2013-09-25 07:48:00,
2013-09-25 00:53:00,74.1,35.0,29.67,East,89,0.0,0.0,24,0.00,,,0.00,0,LWC V2.00 B727,2013-09-25 07:53:00,
2013-09-25 00:58:00,74.0,34.9,29.67,East,89,0.0,0.0,24,0.00,,,0.00,0,LWC V2.00 B727,2013-09-25 07:58:00,
2013-09-25 01:03:00,73.9,35.9,29.67,East,89,0.0,0.0,25,0.00,,,0.00,0,LWC V2.00 B727,2013-09-25 08:03:00,
2013-09-25 01:08:00,73.7,34.7,29.67,East,89,0.0,0.0,24,0.00,,,0.00,0,LWC V2.00 B727,2013-09-25 08:08:00,
2013-09-25 01:13:00,73.5,34.5,29.67,East,89,0.0,1.0,24,0.00,,,0.00,0,LWC V2.00 B727,2013-09-25 08:13:00,
2013-09-25 01:18:00,73.4,34.4,29.67,East,89,0.0,0.0,24,0.00,,,0.00,0,LWC V2.00 B727,2013-09-25 08:18:00,
2013-09-25 01:23:00,73.3,34.3,29.67,East,89,0.0,0.0,24,0.00,,,0.00,0,LWC V2.00 B727,2013-09-25 08:23:00,
2013-09-25 01:28:00,73.2,34.2,29.67,East,89,0.0,0.0,24,0.00,,,0.00,0,LWC V2.00 B727,2013-09-25 08:28:00,
2013-09-25 01:33:00,73.0,35.1,29.67,East,89,1.0,1.0,25,0.00,,,0.00,0,LWC V2.00 B727,2013-09-25 08:33:00,
2013-09-25 01:38:00,72.8,34.9,29.66,East,89,0.0,0.0,25,0.00,,,0.00,0,LWC V2.00 B727,2013-09-25 08:38:00,
2013-09-25 01:43:00,72.7,34.8,29.66,East,89,0.0,1.0,25,0.00,,,0.00,0,LWC V2.00 B727,2013-09-25 08:43:00,
2013-09-25 01:48:00,72.6,35.7,29.66,East,84,0.0,1.0,26,0.00,,,0.00,0,LWC V2.00 B727,2013-09-25 08:48:00,
2013-09-25 01:53:00,72.5,35.7,29.66,East,83,0.0,1.0,26,0.00,,,0.00,0,LWC V2.00 B727,2013-09-25 08:53:00,
2013-09-25 01:58:00,72.4,35.6,29.66,East,80,0.0,1.0,26,0.00,,,0.00,0,LWC V2.00 B727,2013-09-25 08:58:00,
2013-09-25 02:03:00,72.3,35.5,29.66,East,80,0.0,0.0,26,0.00,,,0.00,0,LWC V2.00 B727,2013-09-25 09:03:00,
2013-09-25 02:08:00,72.2,35.4,29.66,East,80,0.0,0.0,26,0.00,,,0.00,0,LWC V2.00 B727,2013-09-25 09:08:00,
2013-09-25 02:13:00,72.2,35.4,29.66,East,80,0.0,0.0,26,0.00,,,0.00,0,LWC V2.00 B727,2013-09-25 09:13:00,
2013-09-25 02:18:00,72.3,35.5,29.66,East,80,0.0,0.0,26,0.00,,,0.00,0,LWC V2.00 B727,2013-09-25 09:18:00,
2013-09-25 02:23:00,72.3,35.5,29.66,East,80,0.0,0.0,26,0.00,,,0.00,0,LWC V2.00 B727,2013-09-25 09:23:00,
2013-09-25 02:28:00,72.5,35.7,29.66,East,80,0.0,0.0,26,0.00,,,0.00,0,LWC V2.00 B727,2013-09-25 09:28:00,
2013-09-25 02:33:00,72.4,35.6,29.65,East,80,1.0,1.0,26,0.00,,,0.00,0,LWC V2.00 B727,2013-09-25 09:33:00,
2013-09-25 02:38:00,72.4,35.6,29.65,East,80,0.0,0.0,26,0.00,,,0.00,0,LWC V2.00 B727,2013-09-25 09:38:00,
2013-09-25 02:43:00,72.1,36.3,29.65,ENE,78,0.0,1.0,27,0.00,,,0.00,0,LWC V2.00 B727,2013-09-25 09:43:00,
2013-09-25 02:48:00,71.9,35.1,29.65,ENE,78,0.0,1.0,26,0.00,,,0.00,0,LWC V2.00 B727,2013-09-25 09:48:00,
2013-09-25 02:53:00,71.7,35.0,29.65,ENE,78,0.0,2.0,26,0.00,,,0.00,0,LWC V2.00 B727,2013-09-25 09:53:00,
2013-09-25 02:58:00,71.4,34.7,29.64,ENE,77,0.0,1.0,26,0.00,,,0.00,0,LWC V2.00 B727,2013-09-25 09:58:00,
2013-09-25 03:03:00,71.1,35.4,29.64,ENE,76,0.0,1.0,27,0.00,,,0.00,0,LWC V2.00 B727,2013-09-25 10:03:00,
2013-09-25 03:08:00,70.7,35.1,29.64,ENE,62,1.0,2.0,27,0.00,,,0.00,0,LWC V2.00 B727,2013-09-25 10:08:00,
2013-09-25 03:13:00,70.6,35.0,29.64,ENE,60,1.0,2.0,27,0.00,,,0.00,0,LWC V2.00 B727,2013-09-25 10:13:00,
2013-09-25 03:18:00,70.5,34.9,29.64,ENE,60,0.0,1.0,27,0.00,,,0.00,0,LWC V2.00 B727,2013-09-25 10:18:00,
2013-09-25 03:23:00,70.4,35.7,29.64,ENE,59,0.0,1.0,28,0.00,,,0.00,0,LWC V2.00 B727,2013-09-25 10:23:00,
2013-09-25 03:28:00,69.6,37.6,29.64,NNW,328,4.0,5.0,31,0.00,,,0.00,0,LWC V2.00 B727,2013-09-25 10:28:00,
2013-09-25 03:33:00,69.1,37.2,29.64,NW,310,2.0,4.0,31,0.00,,,0.00,0,LWC V2.00 B727,2013-09-25 10:33:00,
2013-09-25 03:38:00,69.1,38.0,29.64,NW,309,1.0,1.0,32,0.00,,,0.00,0,LWC V2.00 B727,2013-09-25 10:38:00,
2013-09-25 03:43:00,69.0,37.9,29.64,NW,309,0.0,1.0,32,0.00,,,0.00,0,LWC V2.00 B727,2013-09-25 10:43:00,
2013-09-25 03:48:00,68.8,36.9,29.64,NW,309,0.0,0.0,31,0.00,,,0.00,0,LWC V2.00 B727,2013-09-25 10:48:00,
2013-09-25 03:53:00,68.8,37.7,29.65,NNW,337,1.0,1.0,32,0.00,,,0.00,0,LWC V2.00 B727,2013-09-25 10:53:00,
2013-09-25 03:58:00,68.5,36.7,29.65,NNW,338,0.0,0.0,31,0.00,,,0.00,0,LWC V2.00 B727,2013-09-25 10:58:00,
2013-09-25 04:03:00,67.9,37.7,29.64,North,8,0.0,4.0,33,0.00,,,0.00,0,LWC V2.00 B727,2013-09-25 11:03:00,
2013-09-25 04:08:00,67.4,36.5,29.64,North,8,1.0,2.0,32,0.00,,,0.00,0,LWC V2.00 B727,2013-09-25 11:08:00,
2013-09-25 04:13:00,67.1,35.4,29.65,North,8,0.0,0.0,31,0.00,,,0.00,0,LWC V2.00 B727,2013-09-25 11:13:00,
2013-09-25 04:18:00,66.9,35.3,29.65,North,8,0.0,0.0,31,0.00,,,0.00,0,LWC V2.00 B727,2013-09-25 11:18:00,
2013-09-25 04:23:00,66.8,35.2,29.65,North,8,0.0,0.0,31,0.00,,,0.00,0,LWC V2.00 B727,2013-09-25 11:23:00,
2013-09-25 04:28:00,66.9,34.5,29.65,North,8,0.0,0.0,30,0.00,,,0.00,0,LWC V2.00 B727,2013-09-25 11:28:00,
2013-09-25 04:33:00,67.0,34.5,29.65,North,8,0.0,0.0,30,0.00,,,0.00,0,LWC V2.00 B727,2013-09-25 11:33:00,
2013-09-25 04:38:00,67.2,33.9,29.65,North,8,0.0,0.0,29,0.00,,,0.00,0,LWC V2.00 B727,2013-09-25 11:38:00,
2013-09-25 04:43:00,67.5,35.0,29.65,North,8,0.0,0.0,30,0.00,,,0.00,0,LWC V2.00 B727,2013-09-25 11:43:00,
2013-09-25 04:48:00,68.2,35.6,29.65,North,8,0.0,1.0,30,0.00,,,0.00,0,LWC V2.00 B727,2013-09-25 11:48:00,
2013-09-25 04:53:00,68.6,35.9,29.65,North,8,0.0,0.0,30,0.00,,,0.00,0,LWC V2.00 B727,2013-09-25 11:53:00,
2013-09-25 04:58:00,68.5,35.8,29.65,North,8,0.0,0.0,30,0.00,,,0.00,0,LWC V2.00 B727,2013-09-25 11:58:00,
2013-09-25 05:03:00,68.2,35.6,29.65,North,8,0.0,0.0,30,0.00,,,0.00,0,LWC V2.00 B727,2013-09-25 12:03:00,
2013-09-25 05:08:00,68.1,36.3,29.66,North,8,0.0,0.0,31,0.00,,,0.00,0,LWC V2.00 B727,2013-09-25 12:08:00,
2013-09-25 05:13:00,67.7,36.8,29.66,North,6,0.0,2.0,32,0.00,,,0.00,0,LWC V2.00 B727,2013-09-25 12:13:00,
2013-09-25 05:18:00,67.4,36.5,29.66,North,6,2.0,3.0,32,0.00,,,0.00,0,LWC V2.00 B727,2013-09-25 12:18:00,
2013-09-25 05:23:00,67.3,36.4,29.66,North,6,0.0,1.0,32,0.00,,,0.00,0,LWC V2.00 B727,2013-09-25 12:23:00,
2013-09-25 05:27:00,67.1,35.4,29.66,North,6,2.0,3.0,31,0.00,,,0.00,0,LWC V2.00 B727,2013-09-25 12:27:00,
2013-09-25 05:32:00,67.1,35.4,29.66,North,6,3.0,3.0,31,0.00,,,0.00,0,LWC V2.00 B727,2013-09-25 12:32:00,
2013-09-25 05:37:00,67.0,35.4,29.65,North,8,0.0,2.0,31,0.00,,,0.00,0,LWC V2.00 B727,2013-09-25 12:37:00,
2013-09-25 05:42:00,67.0,34.5,29.65,North,8,0.0,5.0,30,0.00,,,0.00,0,LWC V2.00 B727,2013-09-25 12:42:00,
2013-09-25 05:47:00,67.2,34.7,29.65,North,8,0.0,0.0,30,0.00,,,0.00,0,LWC V2.00 B727,2013-09-25 12:47:00,
2013-09-25 05:52:00,67.4,34.9,29.65,North,8,0.0,0.0,30,0.00,,,0.00,0,LWC V2.00 B727,2013-09-25 12:52:00,
2013-09-25 05:57:00,67.6,35.1,29.65,North,8,0.0,0.0,30,0.00,,,0.00,0,LWC V2.00 B727,2013-09-25 12:57:00,
2013-09-25 06:02:00,67.7,35.1,29.65,North,8,0.0,0.0,30,0.00,,,0.00,0,LWC V2.00 B727,2013-09-25 13:02:00,
2013-09-25 06:07:00,67.7,34.3,29.64,North,8,0.0,0.0,29,0.00,,,0.00,0,LWC V2.00 B727,2013-09-25 13:07:00,
2013-09-25 06:12:00,67.6,35.9,29.64,North,8,0.0,0.0,31,0.00,,,0.00,0,LWC V2.00 B727,2013-09-25 13:12:00,
2013-09-25 06:17:00,67.2,37.1,29.64,North,8,0.0,0.0,33,0.00,,,0.00,5,LWC V2.00 B727,2013-09-25 13:17:00,
2013-09-25 06:22:00,66.8,36.8,29.65,North,7,0.0,0.0,33,0.00,,,0.00,9,LWC V2.00 B727,2013-09-25 13:22:00,
2013-09-25 06:27:00,66.5,36.5,29.65,North,359,2.0,3.0,33,0.00,,,0.00,11,LWC V2.00 B727,2013-09-25 13:27:00,
2013-09-25 06:32:00,66.4,37.2,29.65,NNW,339,2.0,4.0,34,0.00,,,0.00,12,LWC V2.00 B727,2013-09-25 13:32:00,
2013-09-25 06:37:00,66.2,37.0,29.65,WNW,285,3.0,4.0,34,0.00,,,0.00,14,LWC V2.00 B727,2013-09-25 13:37:00,
2013-09-25 06:42:00,66.0,36.8,29.66,NW,307,2.0,3.0,34,0.00,,,0.00,16,LWC V2.00 B727,2013-09-25 13:42:00,
2013-09-25 06:47:00,66.0,36.1,29.66,NW,307,0.0,3.0,33,0.00,,,0.00,18,LWC V2.00 B727,2013-09-25 13:47:00,
2013-09-25 06:51:00,66.1,35.4,29.66,NW,307,2.0,3.0,32,0.00,,,0.00,19,LWC V2.00 B727,2013-09-25 13:51:00,
2013-09-25 06:56:00,66.4,34.8,29.66,NW,307,0.0,1.0,31,0.00,,,0.00,19,LWC V2.00 B727,2013-09-25 13:56:00,
2013-09-25 07:01:00,66.7,35.1,29.66,NW,307,0.0,1.0,31,0.00,,,0.00,23,LWC V2.00 B727,2013-09-25 14:01:00,
2013-09-25 07:06:00,67.9,34.5,29.66,NW,307,0.0,0.0,29,0.00,,,0.00,148,LWC V2.00 B727,2013-09-25 14:06:00,
2013-09-25 07:11:00,69.8,35.2,29.66,NW,307,0.0,1.0,28,0.00,,,0.00,171,LWC V2.00 B727,2013-09-25 14:11:00,
2013-09-25 07:17:00,71.2,34.5,29.66,NW,307,0.0,0.0,26,0.00,,,0.00,188,LWC V2.00 B727,2013-09-25 14:17:00,
2013-09-25 07:22:00,72.3,35.5,29.66,NW,307,0.0,0.0,26,0.00,,,0.00,211,LWC V2.00 B727,2013-09-25 14:22:00,
2013-09-25 07:27:00,72.2,36.4,29.66,NW,307,0.0,1.0,27,0.00,,,0.00,232,LWC V2.00 B727,2013-09-25 14:27:00,
2013-09-25 07:32:00,72.3,35.5,29.66,NW,307,0.0,0.0,26,0.00,,,0.00,251,LWC V2.00 B727,2013-09-25 14:32:00,
2013-09-25 07:37:00,72.7,36.8,29.66,NNW,341,2.0,3.0,27,0.00,,,0.00,271,LWC V2.00 B727,2013-09-25 14:37:00,
2013-09-25 07:41:00,73.3,35.3,29.66,NNW,343,0.0,1.0,25,0.00,,,0.00,290,LWC V2.00 B727,2013-09-25 14:41:00,
2013-09-25 07:46:00,73.8,34.7,29.66,NNW,343,0.0,0.0,24,0.00,,,0.00,309,LWC V2.00 B727,2013-09-25 14:46:00,
2013-09-25 07:51:00,74.8,36.6,29.66,NNW,343,1.0,1.0,25,0.00,,,0.00,323,LWC V2.00 B727,2013-09-25 14:51:00,
2013-09-25 07:56:00,73.9,39.6,29.66,NNW,343,0.0,0.0,29,0.00,,,0.00,343,LWC V2.00 B727,2013-09-25 14:56:00,
2013-09-25 08:01:00,73.6,39.4,29.66,NNW,343,0.0,1.0,29,0.00,,,0.00,362,LWC V2.00 B727,2013-09-25 15:01:00,
2013-09-25 08:06:00,73.4,40.1,29.66,NNW,343,0.0,0.0,30,0.00,,,0.00,381,LWC V2.00 B727,2013-09-25 15:06:00,
2013-09-25 08:11:00,74.1,39.8,29.66,NNW,336,0.0,2.0,29,0.00,,,0.00,399,LWC V2.00 B727,2013-09-25 15:11:00,
2013-09-25 08:16:00,74.4,39.2,29.66,NNW,336,0.0,1.0,28,0.00,,,0.00,417,LWC V2.00 B727,2013-09-25 15:16:00,
2013-09-25 08:21:00,74.8,38.6,29.66,NNW,336,0.0,1.0,27,0.00,,,0.00,432,LWC V2.00 B727,2013-09-25 15:21:00,
2013-09-25 08:26:00,75.5,39.2,29.66,NNW,336,0.0,1.0,27,0.00,,,0.00,450,LWC V2.00 B727,2013-09-25 15:26:00,
2013-09-25 08:32:00,76.7,38.2,29.66,NNW,336,0.0,1.0,25,0.00,,,0.00,468,LWC V2.00 B727,2013-09-25 15:32:00,
2013-09-25 08:36:00,77.9,38.2,29.66,NNW,336,0.0,0.0,24,0.00,,,0.00,485,LWC V2.00 B727,2013-09-25 15:36:00,
2013-09-25 08:42:00,78.8,34.3,29.66,NNW,336,0.0,0.0,20,0.00,,,0.00,503,LWC V2.00 B727,2013-09-25 15:42:00,
2013-09-25 08:47:00,79.1,34.6,29.66,NNW,336,0.0,0.0,20,0.00,,,0.00,519,LWC V2.00 B727,2013-09-25 15:47:00,
2013-09-25 08:52:00,80.0,35.3,29.66,NNW,336,2.0,2.0,20,0.00,,,0.00,536,LWC V2.00 B727,2013-09-25 15:52:00,
2013-09-25 08:57:00,81.2,35.0,29.66,NNW,336,1.0,1.0,19,0.00,,,0.00,548,LWC V2.00 B727,2013-09-25 15:57:00,
2013-09-25 09:02:00,81.1,34.9,29.66,NNW,336,0.0,1.0,19,0.00,,,0.00,564,LWC V2.00 B727,2013-09-25 16:02:00,
2013-09-25 09:07:00,81.4,32.4,29.66,NNW,347,0.0,3.0,17,0.00,,,0.00,580,LWC V2.00 B727,2013-09-25 16:07:00,
2013-09-25 09:12:00,82.2,33.0,29.66,SSE,149,2.0,4.0,17,0.00,,,0.00,596,LWC V2.00 B727,2013-09-25 16:12:00,
2013-09-25 09:17:00,82.7,33.4,29.66,SSE,150,2.0,5.0,17,0.00,,,0.00,612,LWC V2.00 B727,2013-09-25 16:17:00,
2013-09-25 09:22:00,83.5,32.6,29.65,SE,126,2.0,5.0,16,0.00,,,0.00,624,LWC V2.00 B727,2013-09-25 16:22:00,
2013-09-25 09:26:00,83.8,31.2,29.65,SSE,159,3.0,3.0,15,0.00,,,0.00,636,LWC V2.00 B727,2013-09-25 16:26:00,
2013-09-25 09:32:00,83.9,32.9,29.65,SSE,151,3.0,6.0,16,0.00,,,0.00,649,LWC V2.00 B727,2013-09-25 16:32:00,
2013-09-25 09:36:00,84.2,31.5,29.65,ESE,122,6.0,8.0,15,0.00,,,0.00,663,LWC V2.00 B727,2013-09-25 16:36:00,
2013-09-25 09:41:00,84.7,31.9,29.65,SSE,153,1.0,8.0,15,0.00,,,0.00,673,LWC V2.00 B727,2013-09-25 16:41:00,
2013-09-25 09:46:00,85.2,30.6,29.64,ESE,112,7.0,11.0,14,0.00,,,0.00,687,LWC V2.00 B727,2013-09-25 16:46:00,
2013-09-25 09:52:00,85.4,30.8,29.64,SE,138,5.0,7.0,14,0.00,,,0.00,698,LWC V2.00 B727,2013-09-25 16:52:00,
2013-09-25 09:57:00,86.0,29.4,29.64,SE,145,5.0,7.0,13,0.00,,,0.00,710,LWC V2.00 B727,2013-09-25 16:57:00,
2013-09-25 10:02:00,86.1,27.5,29.64,SSW,193,4.0,6.0,12,0.00,,,0.00,722,LWC V2.00 B727,2013-09-25 17:02:00,
2013-09-25 10:07:00,86.4,27.8,29.64,SE,141,6.0,6.0,12,0.00,,,0.00,733,LWC V2.00 B727,2013-09-25 17:07:00,
2013-09-25 10:12:00,86.9,28.2,29.64,SSE,158,3.0,7.0,12,0.00,,,0.00,744,LWC V2.00 B727,2013-09-25 17:12:00,
2013-09-25 10:16:00,87.2,28.4,29.64,SSE,151,3.0,9.0,12,0.00,,,0.00,754,LWC V2.00 B727,2013-09-25 17:16:00,
2013-09-25 10:22:00,87.4,26.4,29.64,South,178,2.0,6.0,11,0.00,,,0.00,765,LWC V2.00 B727,2013-09-25 17:22:00,
2013-09-25 10:27:00,87.6,26.6,29.64,South,185,6.0,9.0,11,0.00,,,0.00,773,LWC V2.00 B727,2013-09-25 17:27:00,
2013-09-25 10:32:00,88.0,29.0,29.64,SSE,167,9.0,9.0,12,0.00,,,0.00,784,LWC V2.00 B727,2013-09-25 17:32:00,
2013-09-25 10:37:00,88.4,27.2,29.64,South,182,4.0,10.0,11,0.00,,,0.00,793,LWC V2.00 B727,2013-09-25 17:37:00,
2013-09-25 10:42:00,88.5,27.3,29.64,SE,139,6.0,8.0,11,0.00,,,0.00,800,LWC V2.00 B727,2013-09-25 17:42:00,
2013-09-25 10:47:00,88.7,25.1,29.63,SE,131,12.0,15.0,10,0.00,,,0.00,807,LWC V2.00 B727,2013-09-25 17:47:00,
2013-09-25 10:52:00,88.6,25.1,29.63,South,180,5.0,12.0,10,0.00,,,0.00,814,LWC V2.00 B727,2013-09-25 17:52:00,
2013-09-25 10:57:00,88.4,24.9,29.63,South,174,5.0,9.0,10,0.00,,,0.00,821,LWC V2.00 B727,2013-09-25 17:57:00,
2013-09-25 11:02:00,88.7,27.4,29.63,South,186,3.0,8.0,11,0.00,,,0.00,828,LWC V2.00 B727,2013-09-25 18:02:00,
2013-09-25 11:07:00,89.0,27.7,29.62,South,189,7.0,8.0,11,0.00,,,0.00,833,LWC V2.00 B727,2013-09-25 18:07:00,
2013-09-25 11:12:00,89.1,27.7,29.63,SE,143,7.0,10.0,11,0.00,,,0.00,838,LWC V2.00 B727,2013-09-25 18:12:00,
2013-09-25 11:17:00,89.2,27.8,29.62,SE,132,6.0,8.0,11,0.00,,,0.00,844,LWC V2.00 B727,2013-09-25 18:17:00,
2013-09-25 11:22:00,89.5,25.7,29.62,SSE,147,12.0,20.0,10,0.00,,,0.00,847,LWC V2.00 B727,2013-09-25 18:22:00,
2013-09-25 11:27:00,89.3,25.6,29.61,SE,142,6.0,9.0,10,0.00,,,0.00,853,LWC V2.00 B727,2013-09-25 18:27:00,
2013-09-25 11:32:00,89.4,25.7,29.61,South,172,6.0,13.0,10,0.00,,,0.00,856,LWC V2.00 B727,2013-09-25 18:32:00,
2013-09-25 11:37:00,89.4,25.7,29.61,SSE,147,7.0,13.0,10,0.00,,,0.00,860,LWC V2.00 B727,2013-09-25 18:37:00,
2013-09-25 11:41:00,89.8,26.0,29.61,SE,142,12.0,15.0,10,0.00,,,0.00,861,LWC V2.00 B727,2013-09-25 18:41:00,
2013-09-25 11:46:00,89.8,26.0,29.61,SSE,155,6.0,8.0,10,0.00,,,0.00,863,LWC V2.00 B727,2013-09-25 18:46:00,
2013-09-25 11:51:00,90.2,26.3,29.60,South,184,8.0,13.0,10,0.00,,,0.00,865,LWC V2.00 B727,2013-09-25 18:51:00,
2013-09-25 11:56:00,90.2,26.3,29.60,SSW,199,5.0,7.0,10,0.00,,,0.00,868,LWC V2.00 B727,2013-09-25 18:56:00,
2013-09-25 12:01:00,90.4,26.4,29.60,SSE,148,8.0,10.0,10,0.00,,,0.00,868,LWC V2.00 B727,2013-09-25 19:01:00,
2013-09-25 12:06:00,90.3,26.3,29.60,South,174,9.0,11.0,10,0.00,,,0.00,867,LWC V2.00 B727,2013-09-25 19:06:00,
2013-09-25 12:12:00,90.8,26.7,29.59,South,174,11.0,15.0,10,0.00,,,0.00,868,LWC V2.00 B727,2013-09-25 19:12:00,
2013-09-25 12:17:00,90.6,26.6,29.59,SSE,162,5.0,13.0,10,0.00,,,0.00,868,LWC V2.00 B727,2013-09-25 19:17:00,
2013-09-25 12:22:00,90.8,26.7,29.59,SSE,168,3.0,8.0,10,0.00,,,0.00,868,LWC V2.00 B727,2013-09-25 19:22:00,
2013-09-25 12:27:00,90.8,24.2,29.59,SSE,153,5.0,13.0,9,0.00,,,0.00,868,LWC V2.00 B727,2013-09-25 19:27:00,
2013-09-25 12:32:00,90.9,26.8,29.59,SSE,168,6.0,12.0,10,0.00,,,0.00,865,LWC V2.00 B727,2013-09-25 19:32:00,
2013-09-25 12:37:00,91.5,27.2,29.59,SSE,151,15.0,15.0,10,0.00,,,0.00,865,LWC V2.00 B727,2013-09-25 19:37:00,
2013-09-25 12:42:00,91.6,27.3,29.58,SE,141,4.0,12.0,10,0.00,,,0.00,863,LWC V2.00 B727,2013-09-25 19:42:00,
2013-09-25 12:47:00,91.7,24.9,29.58,SE,146,13.0,17.0,9,0.00,,,0.00,860,LWC V2.00 B727,2013-09-25 19:47:00,
2013-09-25 12:52:00,91.7,24.9,29.58,SE,145,7.0,10.0,9,0.00,,,0.00,858,LWC V2.00 B727,2013-09-25 19:52:00,
2013-09-25 12:57:00,91.6,24.8,29.58,SE,125,10.0,17.0,9,0.00,,,0.00,854,LWC V2.00 B727,2013-09-25 19:57:00,
2013-09-25 13:02:00,91.3,27.1,29.58,South,176,4.0,12.0,10,0.00,,,0.00,849,LWC V2.00 B727,2013-09-25 20:02:00,
2013-09-25 13:07:00,91.8,24.9,29.58,SE,140,6.0,12.0,9,0.00,,,0.00,847,LWC V2.00 B727,2013-09-25 20:07:00,
2013-09-25 13:12:00,92.2,27.8,29.57,SSE,157,10.0,16.0,10,0.00,,,0.00,840,LWC V2.00 B727,2013-09-25 20:12:00,
2013-09-25 13:17:00,92.5,25.4,29.57,SSE,154,5.0,14.0,9,0.00,,,0.00,833,LWC V2.00 B727,2013-09-25 20:17:00,
2013-09-25 13:21:00,92.0,25.1,29.57,SE,143,8.0,14.0,9,0.00,,,0.00,826,LWC V2.00 B727,2013-09-25 20:21:00,
2013-09-25 13:26:00,91.7,24.9,29.56,ESE,103,6.0,13.0,9,0.00,,,0.00,821,LWC V2.00 B727,2013-09-25 20:26:00,
2013-09-25 13:31:00,91.6,24.8,29.56,SE,138,10.0,16.0,9,0.00,,,0.00,816,LWC V2.00 B727,2013-09-25 20:31:00,
2013-09-25 13:36:00,91.8,24.9,29.56,ESE,108,12.0,18.0,9,0.00,,,0.00,807,LWC V2.00 B727,2013-09-25 20:36:00,
2013-09-25 13:41:00,91.7,24.9,29.55,ESE,110,10.0,15.0,9,0.00,,,0.00,800,LWC V2.00 B727,2013-09-25 20:41:00,
2013-09-25 13:46:00,91.6,24.8,29.55,SE,136,5.0,11.0,9,0.00,,,0.00,786,LWC V2.00 B727,2013-09-25 20:46:00,
2013-09-25 13:51:00,92.4,25.4,29.55,SSE,147,11.0,14.0,9,0.00,,,0.00,782,LWC V2.00 B727,2013-09-25 20:51:00,
2013-09-25 13:56:00,92.7,25.6,29.55,SSW,195,5.0,15.0,9,0.00,,,0.00,773,LWC V2.00 B727,2013-09-25 20:56:00,
2013-09-25 14:01:00,93.3,26.0,29.54,South,182,9.0,10.0,9,0.00,,,0.00,763,LWC V2.00 B727,2013-09-25 21:01:00,
2013-09-25 14:06:00,93.8,26.4,29.54,South,187,8.0,11.0,9,0.00,,,0.00,752,LWC V2.00 B727,2013-09-25 21:06:00,
2013-09-25 14:11:00,93.8,26.4,29.54,SSE,161,9.0,10.0,9,0.00,,,0.00,744,LWC V2.00 B727,2013-09-25 21:11:00,
2013-09-25 14:17:00,93.7,26.3,29.54,South,182,8.0,15.0,9,0.00,,,0.00,733,LWC V2.00 B727,2013-09-25 21:17:00,
2013-09-25 14:22:00,93.6,26.3,29.54,South,185,5.0,13.0,9,0.00,,,0.00,721,LWC V2.00 B727,2013-09-25 21:22:00,
2013-09-25 14:27:00,93.9,26.5,29.54,SSE,161,4.0,9.0,9,0.00,,,0.00,708,LWC V2.00 B727,2013-09-25 21:27:00,
2013-09-25 14:32:00,93.6,26.3,29.54,South,183,7.0,21.0,9,0.00,,,0.00,698,LWC V2.00 B727,2013-09-25 21:32:00,
2013-09-25 14:37:00,93.2,26.0,29.54,SSE,156,13.0,17.0,9,0.00,,,0.00,687,LWC V2.00 B727,2013-09-25 21:37:00,
2013-09-25 14:42:00,92.9,25.7,29.54,South,186,4.0,10.0,9,0.00,,,0.00,675,LWC V2.00 B727,2013-09-25 21:42:00,
2013-09-25 14:47:00,92.6,25.5,29.54,SSE,152,13.0,17.0,9,0.00,,,0.00,659,LWC V2.00 B727,2013-09-25 21:47:00,
2013-09-25 14:52:00,92.5,25.4,29.53,South,174,4.0,14.0,9,0.00,,,0.00,647,LWC V2.00 B727,2013-09-25 21:52:00,
2013-09-25 14:57:00,92.7,25.6,29.53,SSE,158,6.0,15.0,9,0.00,,,0.00,633,LWC V2.00 B727,2013-09-25 21:57:00,
2013-09-25 15:02:00,92.8,22.9,29.53,SE,127,17.0,19.0,8,0.00,,,0.00,621,LWC V2.00 B727,2013-09-25 22:02:00,
2013-09-25 15:07:00,92.5,25.4,29.53,ESE,117,11.0,22.0,9,0.00,,,0.00,605,LWC V2.00 B727,2013-09-25 22:07:00,
2013-09-25 15:12:00,92.2,25.2,29.53,SE,132,7.0,17.0,9,0.00,,,0.00,591,LWC V2.00 B727,2013-09-25 22:12:00,
2013-09-25 15:17:00,92.0,22.3,29.53,ESE,121,11.0,17.0,8,0.00,,,0.00,577,LWC V2.00 B727,2013-09-25 22:17:00,
2013-09-25 15:22:00,91.8,24.9,29.53,SE,137,6.0,11.0,9,0.00,,,0.00,561,LWC V2.00 B727,2013-09-25 22:22:00,
2013-09-25 15:27:00,92.0,25.1,29.53,South,180,8.0,11.0,9,0.00,,,0.00,547,LWC V2.00 B727,2013-09-25 22:27:00,
2013-09-25 15:32:00,92.2,25.2,29.52,SSE,156,5.0,14.0,9,0.00,,,0.00,529,LWC V2.00 B727,2013-09-25 22:32:00,
2013-09-25 15:37:00,92.0,25.1,29.53,ESE,112,15.0,15.0,9,0.00,,,0.00,517,LWC V2.00 B727,2013-09-25 22:37:00,
2013-09-25 15:42:00,91.7,24.9,29.53,SE,143,11.0,18.0,9,0.00,,,0.00,497,LWC V2.00 B727,2013-09-25 22:42:00,
2013-09-25 15:47:00,91.4,24.6,29.53,SE,140,9.0,15.0,9,0.00,,,0.00,483,LWC V2.00 B727,2013-09-25 22:47:00,
2013-09-25 15:52:00,91.4,24.6,29.52,ESE,114,4.0,11.0,9,0.00,,,0.00,468,LWC V2.00 B727,2013-09-25 22:52:00,
2013-09-25 15:57:00,91.8,24.9,29.52,SSE,147,11.0,11.0,9,0.00,,,0.00,452,LWC V2.00 B727,2013-09-25 22:57:00,
2013-09-25 16:02:00,91.9,25.0,29.52,SSE,165,8.0,10.0,9,0.00,,,0.00,434,LWC V2.00 B727,2013-09-25 23:02:00,
2013-09-25 16:07:00,91.7,22.1,29.52,SE,124,10.0,19.0,8,0.00,,,0.00,417,LWC V2.00 B727,2013-09-25 23:07:00,
2013-09-25 16:12:00,91.1,24.4,29.52,SE,144,12.0,16.0,9,0.00,,,0.00,399,LWC V2.00 B727,2013-09-25 23:12:00,
2013-09-25 16:17:00,90.8,24.2,29.52,SE,143,10.0,17.0,9,0.00,,,0.00,380,LWC V2.00 B727,2013-09-25 23:17:00,
2013-09-25 16:22:00,90.6,24.0,29.52,SE,145,8.0,10.0,9,0.00,,,0.00,366,LWC V2.00 B727,2013-09-25 23:22:00,
2013-09-25 16:27:00,90.7,21.3,29.52,SSE,166,4.0,16.0,8,0.00,,,0.00,348,LWC V2.00 B727,2013-09-25 23:27:00,
2013-09-25 16:32:00,90.5,21.2,29.52,ESE,119,13.0,17.0,8,0.00,,,0.00,330,LWC V2.00 B727,2013-09-25 23:32:00,
2013-09-25 16:37:00,90.1,20.9,29.52,SSE,148,5.0,11.0,8,0.00,,,0.00,313,LWC V2.00 B727,2013-09-25 23:37:00,
2013-09-25 16:42:00,90.1,20.9,29.52,SE,139,6.0,16.0,8,0.00,,,0.00,294,LWC V2.00 B727,2013-09-25 23:42:00,
2013-09-25 16:47:00,90.0,20.8,29.52,SSE,164,6.0,19.0,8,0.00,,,0.00,274,LWC V2.00 B727,2013-09-25 23:47:00,
2013-09-25 16:52:00,89.7,20.6,29.52,ESE,117,14.0,14.0,8,0.00,,,0.00,257,LWC V2.00 B727,2013-09-25 23:52:00,
2013-09-25 16:57:00,89.3,20.3,29.52,SSE,149,5.0,14.0,8,0.00,,,0.00,241,LWC V2.00 B727,2013-09-25 23:57:00,
2013-09-25 17:02:00,89.1,20.1,29.52,SE,145,14.0,19.0,8,0.00,,,0.00,221,LWC V2.00 B727,2013-09-26 00:02:00,
2013-09-25 17:07:00,88.8,22.7,29.51,SE,125,6.0,13.0,9,0.00,,,0.00,202,LWC V2.00 B727,2013-09-26 00:07:00,
2013-09-25 17:12:00,88.7,19.8,29.51,SE,135,7.0,14.0,8,0.00,,,0.00,181,LWC V2.00 B727,2013-09-26 00:12:00,
2013-09-25 17:17:00,88.4,22.4,29.51,SE,139,14.0,14.0,9,0.00,,,0.00,160,LWC V2.00 B727,2013-09-26 00:17:00,
2013-09-25 17:22:00,88.1,19.4,29.51,SE,146,11.0,17.0,8,0.00,,,0.00,137,LWC V2.00 B727,2013-09-26 00:22:00,
2013-09-25 17:27:00,87.7,21.9,29.51,SSE,150,9.0,13.0,9,0.00,,,0.00,116,LWC V2.00 B727,2013-09-26 00:27:00,
2013-09-25 17:32:00,87.3,21.6,29.52,SE,132,9.0,16.0,9,0.00,,,0.00,97,LWC V2.00 B727,2013-09-26 00:32:00,
2013-09-25 17:36:00,87.0,21.3,29.52,SE,140,7.0,11.0,9,0.00,,,0.00,74,LWC V2.00 B727,2013-09-26 00:36:00,
2013-09-25 17:41:00,86.6,21.1,29.52,South,173,11.0,23.0,9,0.00,,,0.00,60,LWC V2.00 B727,2013-09-26 00:41:00,
2013-09-25 17:46:00,86.2,20.8,29.52,SE,146,8.0,13.0,9,0.00,,,0.00,21,LWC V2.00 B727,2013-09-26 00:46:00,
2013-09-25 17:51:00,85.7,22.9,29.52,SE,141,3.0,14.0,10,0.00,,,0.00,32,LWC V2.00 B727,2013-09-26 00:51:00,
2013-09-25 17:56:00,85.4,22.6,29.52,SE,139,13.0,14.0,10,0.00,,,0.00,21,LWC V2.00 B727,2013-09-26 00:56:00,
2013-09-25 18:01:00,85.1,22.4,29.52,SSE,150,3.0,11.0,10,0.00,,,0.00,14,LWC V2.00 B727,2013-09-26 01:01:00,
2013-09-25 18:06:00,84.8,22.2,29.52,SE,141,7.0,11.0,10,0.00,,,0.00,11,LWC V2.00 B727,2013-09-26 01:06:00,
2013-09-25 18:11:00,84.3,21.8,29.52,SSE,151,10.0,16.0,10,0.00,,,0.00,7,LWC V2.00 B727,2013-09-26 01:11:00,
2013-09-25 18:16:00,83.9,23.8,29.52,SE,135,6.0,12.0,11,0.00,,,0.00,5,LWC V2.00 B727,2013-09-26 01:16:00,
2013-09-25 18:21:00,83.5,23.5,29.52,SSE,148,8.0,9.0,11,0.00,,,0.00,0,LWC V2.00 B727,2013-09-26 01:21:00,
2013-09-25 18:26:00,83.0,23.1,29.52,SE,141,7.0,9.0,11,0.00,,,0.00,0,LWC V2.00 B727,2013-09-26 01:26:00,
2013-09-25 18:31:00,82.7,22.8,29.52,SE,142,7.0,14.0,11,0.00,,,0.00,0,LWC V2.00 B727,2013-09-26 01:31:00,
2013-09-25 18:36:00,82.4,22.6,29.53,SE,124,13.0,13.0,11,0.00,,,0.00,0,LWC V2.00 B727,2013-09-26 01:36:00,
2013-09-25 18:41:00,82.2,22.5,29.53,SSE,148,5.0,10.0,11,0.00,,,0.00,0,LWC V2.00 B727,2013-09-26 01:41:00,
2013-09-25 18:46:00,82.0,22.3,29.53,SE,133,6.0,14.0,11,0.00,,,0.00,0,LWC V2.00 B727,2013-09-26 01:46:00,
2013-09-25 18:51:00,81.7,22.1,29.53,SE,125,6.0,11.0,11,0.00,,,0.00,0,LWC V2.00 B727,2013-09-26 01:51:00,
2013-09-25 18:56:00,81.5,21.9,29.53,SE,138,7.0,14.0,11,0.00,,,0.00,0,LWC V2.00 B727,2013-09-26 01:56:00,
2013-09-25 19:01:00,81.3,21.8,29.53,SE,134,9.0,15.0,11,0.00,,,0.00,0,LWC V2.00 B727,2013-09-26 02:01:00,
2013-09-25 19:06:00,81.1,21.6,29.54,SE,132,13.0,17.0,11,0.00,,,0.00,0,LWC V2.00 B727,2013-09-26 02:06:00,
2013-09-25 19:11:00,81.0,21.5,29.54,SE,139,8.0,14.0,11,0.00,,,0.00,0,LWC V2.00 B727,2013-09-26 02:11:00,
2013-09-25 19:16:00,80.8,21.4,29.54,SE,138,8.0,13.0,11,0.00,,,0.00,0,LWC V2.00 B727,2013-09-26 02:16:00,
2013-09-25 19:21:00,80.6,21.2,29.54,SE,138,8.0,12.0,11,0.00,,,0.00,0,LWC V2.00 B727,2013-09-26 02:21:00,
2013-09-25 19:26:00,80.3,21.0,29.54,SE,126,7.0,15.0,11,0.00,,,0.00,0,LWC V2.00 B727,2013-09-26 02:26:00,
2013-09-25 19:31:00,80.1,20.9,29.54,SSE,157,8.0,13.0,11,0.00,,,0.00,0,LWC V2.00 B727,2013-09-26 02:31:00,
2013-09-25 19:36:00,79.8,20.6,29.55,SSE,151,7.0,10.0,11,0.00,,,0.00,0,LWC V2.00 B727,2013-09-26 02:36:00,
2013-09-25 19:41:00,79.6,20.5,29.55,SE,143,6.0,10.0,11,0.00,,,0.00,0,LWC V2.00 B727,2013-09-26 02:41:00,
2013-09-25 19:46:00,79.4,20.3,29.55,SE,143,6.0,16.0,11,0.00,,,0.00,0,LWC V2.00 B727,2013-09-26 02:46:00,
2013-09-25 19:51:00,79.3,20.2,29.55,SE,145,6.0,9.0,11,0.00,,,0.00,0,LWC V2.00 B727,2013-09-26 02:51:00,
2013-09-25 19:56:00,79.1,20.1,29.55,SE,135,7.0,10.0,11,0.00,,,0.00,0,LWC V2.00 B727,2013-09-26 02:56:00,
2013-09-25 20:01:00,78.7,19.8,29.55,ESE,122,7.0,8.0,11,0.00,,,0.00,0,LWC V2.00 B727,2013-09-26 03:01:00,
2013-09-25 20:06:00,78.4,19.5,29.55,ESE,120,7.0,13.0,11,0.00,,,0.00,0,LWC V2.00 B727,2013-09-26 03:06:00,
2013-09-25 20:11:00,78.1,19.3,29.56,SE,128,8.0,11.0,11,0.00,,,0.00,0,LWC V2.00 B727,2013-09-26 03:11:00,
2013-09-25 20:16:00,77.9,21.2,29.56,ESE,110,6.0,12.0,12,0.00,,,0.00,0,LWC V2.00 B727,2013-09-26 03:16:00,
2013-09-25 20:21:00,77.8,21.1,29.56,SE,126,9.0,12.0,12,0.00,,,0.00,0,LWC V2.00 B727,2013-09-26 03:21:00,
2013-09-25 20:26:00,77.8,21.1,29.56,SE,127,6.0,12.0,12,0.00,,,0.00,0,LWC V2.00 B727,2013-09-26 03:26:00,
2013-09-25 20:31:00,77.9,21.2,29.56,SE,129,12.0,13.0,12,0.00,,,0.00,0,LWC V2.00 B727,2013-09-26 03:31:00,
2013-09-25 20:36:00,77.8,21.1,29.56,ESE,104,12.0,13.0,12,0.00,,,0.00,0,LWC V2.00 B727,2013-09-26 03:36:00,
2013-09-25 20:41:00,77.9,21.2,29.56,SE,128,5.0,11.0,12,0.00,,,0.00,0,LWC V2.00 B727,2013-09-26 03:41:00,
2013-09-25 20:46:00,77.7,21.0,29.56,ESE,118,8.0,10.0,12,0.00,,,0.00,0,LWC V2.00 B727,2013-09-26 03:46:00,
2013-09-25 20:51:00,77.5,20.9,29.56,ESE,114,13.0,14.0,12,0.00,,,0.00,0,LWC V2.00 B727,2013-09-26 03:51:00,
2013-09-25 20:56:00,77.5,20.9,29.56,ESE,115,8.0,9.0,12,0.00,,,0.00,0,LWC V2.00 B727,2013-09-26 03:56:00,
2013-09-25 21:01:00,77.4,20.8,29.56,ESE,116,10.0,11.0,12,0.00,,,0.00,0,LWC V2.00 B727,2013-09-26 04:01:00,
2013-09-25 21:06:00,77.2,20.7,29.57,ESE,114,9.0,12.0,12,0.00,,,0.00,0,LWC V2.00 B727,2013-09-26 04:06:00,
2013-09-25 21:11:00,77.2,20.7,29.57,ESE,112,9.0,12.0,12,0.00,,,0.00,0,LWC V2.00 B727,2013-09-26 04:11:00,
2013-09-25 21:16:00,77.1,20.6,29.57,ESE,115,12.0,13.0,12,0.00,,,0.00,0,LWC V2.00 B727,2013-09-26 04:16:00,
2013-09-25 21:21:00,77.1,20.6,29.57,ESE,120,8.0,12.0,12,0.00,,,0.00,0,LWC V2.00 B727,2013-09-26 04:21:00,
2013-09-25 21:26:00,77.0,22.4,29.57,ESE,119,9.0,12.0,13,0.00,,,0.00,0,LWC V2.00 B727,2013-09-26 04:26:00,
2013-09-25 21:31:00,77.0,22.4,29.57,SE,129,7.0,11.0,13,0.00,,,0.00,0,LWC V2.00 B727,2013-09-26 04:31:00,
2013-09-25 21:36:00,76.9,22.3,29.57,ESE,109,8.0,14.0,13,0.00,,,0.00,0,LWC V2.00 B727,2013-09-26 04:36:00,
2013-09-25 21:41:00,76.9,22.3,29.57,ESE,118,8.0,11.0,13,0.00,,,0.00,0,LWC V2.00 B727,2013-09-26 04:41:00,
2013-09-25 21:46:00,76.8,22.2,29.57,SE,139,11.0,15.0,13,0.00,,,0.00,0,LWC V2.00 B727,2013-09-26 04:46:00,
2013-09-25 21:51:00,76.7,22.2,29.57,SE,128,10.0,12.0,13,0.00,,,0.00,0,LWC V2.00 B727,2013-09-26 04:51:00,
2013-09-25 21:56:00,76.6,22.1,29.57,SE,133,8.0,13.0,13,0.00,,,0.00,0,LWC V2.00 B727,2013-09-26 04:56:00,
2013-09-25 22:01:00,76.4,21.9,29.57,ESE,122,7.0,12.0,13,0.00,,,0.00,0,LWC V2.00 B727,2013-09-26 05:01:00,
2013-09-25 22:06:00,76.4,21.9,29.57,SE,141,11.0,13.0,13,0.00,,,0.00,0,LWC V2.00 B727,2013-09-26 05:06:00,
2013-09-25 22:11:00,76.3,21.8,29.57,SE,137,10.0,13.0,13,0.00,,,0.00,0,LWC V2.00 B727,2013-09-26 05:11:00,
2013-09-25 22:16:00,76.3,21.8,29.57,SE,145,8.0,11.0,13,0.00,,,0.00,0,LWC V2.00 B727,2013-09-26 05:16:00,
2013-09-25 22:21:00,76.3,21.8,29.57,SE,132,4.0,11.0,13,0.00,,,0.00,0,LWC V2.00 B727,2013-09-26 05:21:00,
2013-09-25 22:26:00,76.2,21.8,29.57,SE,141,10.0,16.0,13,0.00,,,0.00,0,LWC V2.00 B727,2013-09-26 05:26:00,
2013-09-25 22:31:00,76.2,21.8,29.57,SE,135,13.0,16.0,13,0.00,,,0.00,0,LWC V2.00 B727,2013-09-26 05:31:00,
2013-09-25 22:36:00,76.2,21.8,29.57,SE,144,9.0,16.0,13,0.00,,,0.00,0,LWC V2.00 B727,2013-09-26 05:36:00,
2013-09-25 22:41:00,76.0,21.6,29.58,ESE,120,5.0,13.0,13,0.00,,,0.00,0,LWC V2.00 B727,2013-09-26 05:41:00,
2013-09-25 22:46:00,75.8,21.5,29.58,SE,135,7.0,11.0,13,0.00,,,0.00,0,LWC V2.00 B727,2013-09-26 05:46:00,
2013-09-25 22:51:00,75.5,21.2,29.58,SSE,151,9.0,16.0,13,0.00,,,0.00,0,LWC V2.00 B727,2013-09-26 05:51:00,
2013-09-25 22:56:00,75.3,19.2,29.58,ESE,120,16.0,19.0,12,0.00,,,0.00,0,LWC V2.00 B727,2013-09-26 05:56:00,
2013-09-25 23:01:00,75.3,19.2,29.58,SSE,153,9.0,16.0,12,0.00,,,0.00,0,LWC V2.00 B727,2013-09-26 06:01:00,
2013-09-25 23:06:00,75.2,19.1,29.58,SE,127,12.0,16.0,12,0.00,,,0.00,0,LWC V2.00 B727,2013-09-26 06:06:00,
2013-09-25 23:11:00,75.0,19.0,29.58,SSE,161,8.0,15.0,12,0.00,,,0.00,0,LWC V2.00 B727,2013-09-26 06:11:00,
2013-09-25 23:16:00,74.9,18.9,29.58,SE,139,4.0,9.0,12,0.00,,,0.00,0,LWC V2.00 B727,2013-09-26 06:16:00,
2013-09-25 23:21:00,74.6,20.5,29.58,SSE,149,7.0,10.0,13,0.00,,,0.00,0,LWC V2.00 B727,2013-09-26 06:21:00,
2013-09-25 23:26:00,74.3,20.3,29.57,SSE,153,3.0,6.0,13,0.00,,,0.00,0,LWC V2.00 B727,2013-09-26 06:26:00,
2013-09-25 23:31:00,74.0,20.0,29.57,SSE,147,0.0,6.0,13,0.00,,,0.00,0,LWC V2.00 B727,2013-09-26 06:31:00,
2013-09-25 23:36:00,73.7,19.8,29.57,SSE,149,3.0,4.0,13,0.00,,,0.00,0,LWC V2.00 B727,2013-09-26 06:36:00,
2013-09-25 23:41:00,73.3,19.5,29.57,SSE,160,7.0,11.0,13,0.00,,,0.00,0,LWC V2.00 B727,2013-09-26 06:41:00,
2013-09-25 23:46:00,73.0,19.3,29.57,SSE,154,5.0,14.0,13,0.00,,,0.00,0,LWC V2.00 B727,2013-09-26 06:46:00,
2013-09-25 23:51:00,72.9,20.9,29.58,SE,126,7.0,11.0,14,0.00,,,0.00,0,LWC V2.00 B727,2013-09-26 06:51:00,
2013-09-25 23:56:00,72.8,20.8,29.57,SE,130,7.0,9.0,14,0.00,,,0.00,0,LWC V2.00 B727,2013-09-26 06:56:00,